Location: Bazillac
(43.3536°N, 0.0990°E)
Time: 10:18:55
(UTC+00:00)

Daily predictions for brighter satellites

Satellite Brightness Start Highest point End
(mag) Time Altitude Azimuth Time Altitude Azimuth Time Altitude Azimuth
ATLAS 5 CENTAUR R/B 1.8 16:56:59 10° NNW 17:01:26 72° NE 17:07:01 10° SE
Cosmos 1484 Rocket 3.0 16:59:08 10° S 17:02:36 65° WSW 17:06:07 10° NNW
Iridium 4 Rocket 4.1 16:59:31 10° SSW 17:04:34 58° W 17:09:13 10° N
Cosmos 2233 Rocket 4.0 17:00:31 10° S 17:06:47 78° E 17:13:08 10° N
Cosmos 1725 Rocket 4.4 17:01:33 10° SSW 17:07:48 72° W 17:14:08 10° N
Cosmos 407 Rocket 3.8 17:02:56 10° S 17:07:52 46° ESE 17:12:47 10° NNE
CBERS-1 4.3 17:03:33 10° S 17:08:39 75° WSW 17:13:47 10° NNW
Cosmos 2061 Rocket 4.0 17:03:03 10° S 17:09:19 73° E 17:15:33 10° NNE
RESURS DK-1 3.1 17:06:47 10° N 17:10:19 29° NE 17:13:50 10° ESE
Cosmos 1782 Rocket 3.7 17:09:15 10° S 17:13:41 84° W 17:18:09 10° N
ISS -3.7 17:10:34 10° WSW 17:13:55 82° NNW 17:17:12 10° NE
CZ-2D R/B 3.1 17:11:59 10° SE 17:14:56 39° ENE 17:17:56 10° N
Cosmos 1869 3.5 17:12:14 10° SSE 17:15:32 39° E 17:18:50 10° NNE
SPOT 1/Viking Rocket 4.5 17:13:35 10° ESE 17:17:48 26° ENE 17:22:03 10° N
Cosmos 1300 Rocket 4.0 17:13:31 10° SSW 17:17:53 67° W 17:22:15 10° N
SJ-12 3.8 17:18:02 10° SSE 17:21:43 52° ENE 17:25:25 10° N
IGS 5A 3.9 17:18:41 10° S 17:22:37 63° W 17:26:37 10° NNW
COSMO-SKYMED 1 3.9 17:21:31 10° NE 17:24:17 17° E 17:27:02 10° SE
AQUARIUS 4.3 17:21:17 10° SE 17:25:31 48° ENE 17:29:46 10° N
SL-12 R/B(2) 4.3 17:17:50 10° SSW 17:25:34 75° ESE 17:34:59 10° NE
BREEZE-M DEB (TANK) 2.1 17:26:17 10° WSW 17:28:33 62° NNW 17:32:21 14° ENE
Cosmos 1400 Rocket 4.1 17:26:53 10° SE 17:29:34 19° E 17:31:12 15° ENE
Cosmos 540 Rocket 3.6 17:25:37 10° N 17:30:38 51° ENE 17:35:36 10° SE
Cosmos 1975 Rocket 3.1 17:29:48 10° N 17:34:10 85° W 17:38:32 10° S
Cosmos 1812 2.4 17:32:12 10° SSE 17:34:56 38° E 17:37:35 11° NNE
Cosmos 1763 Rocket 3.4 17:30:56 10° NNW 17:36:09 69° ENE 17:41:15 10° SSE
CORIOLIS 4.5 17:32:38 10° S 17:37:59 72° WSW 17:43:20 10° NNW
Cosmos 1140 Rocket 4.5 17:34:49 10° SW 17:39:48 47° WNW 17:44:47 10° N
Cosmos 2151 Rocket 4.3 17:36:07 10° SSE 17:40:07 33° E 17:44:09 10° NNE
SMAP 3.5 17:36:54 10° S 17:41:31 66° WSW 17:46:10 10° NNW
Cosmos 44 Rocket 3.2 17:37:57 10° SSW 17:42:40 75° ESE 17:47:06 13° NE
IRS-1C 4.2 17:37:44 10° SSE 17:43:03 83° WSW 17:48:24 10° NNW
Cosmos 2058 3.2 17:40:23 10° N 17:44:09 40° ENE 17:47:54 10° SSE
Cosmos 1943 Rocket 2.2 17:41:57 10° SSW 17:47:35 90° ESE 17:53:13 10° NNE
Okean 1 Rocket 4.0 17:46:22 10° SE 17:50:03 27° E 17:51:43 21° NE
CZ-2D R/B 3.8 17:46:39 10° SE 17:50:33 42° ENE 17:54:32 10° N
Sich 1 Rocket 4.4 17:47:12 10° SSE 17:51:05 29° E 17:53:28 18° NE
SKYMED 2 3.7 17:46:53 10° NNE 17:51:07 49° E 17:55:20 10° S
PSLV R/B 4.1 17:48:38 10° SE 17:52:12 31° ENE 17:55:45 10° N
Helios 1A Rocket 3.2 17:51:57 28° ENE 17:52:39 31° E 17:55:41 10° SSE
Landsat 7 4.1 17:49:21 10° S 17:53:58 69° WSW 17:58:38 10° NNW
Cosmos 2082 Rocket 2.3 17:49:15 10° NNW 17:54:42 51° ENE 18:00:09 10° SE
Cosmos 1072 Rocket 4.5 17:49:54 10° S 17:55:56 60° E 18:01:56 10° NNE
Cosmos 2278 Rocket 2.3 17:50:43 10° SSW 17:56:23 82° WNW 18:02:04 10° NNE
Aureole 3 Rocket 2.2 17:56:37 10° S 17:59:39 81° W 18:02:48 10° N
BREEZE-M DEB (TANK) 2.9 17:57:39 10° WSW 18:00:12 69° NNW 18:03:16 23° ENE
BREEZE-M DEB (TANK) 3.5 17:58:59 10° W 18:01:21 43° NNW 18:04:09 21° NE
Cosmos 2369 Rocket 4.1 18:03:44 10° SE 18:04:21 12° SE 18:04:21 12° SE
SL-16 R/B 4.5 18:02:06 10° N 18:07:10 27° WNW 18:12:14 10° WSW
Cosmos 2251 Rocket 3.4 18:01:56 10° SSW 18:07:12 85° ESE 18:12:33 10° NNE
YAOGAN 1 2.6 18:05:51 10° SSE 18:09:58 51° ENE 18:14:07 10° N
Cosmos 371 Rocket 3.5 18:06:15 10° S 18:10:51 48° ESE 18:12:52 30° NE
Cosmos 304 Rocket 3.8 18:07:21 10° S 18:11:55 51° ESE 18:13:57 30° NE
SJ 16-02 1.2 18:09:14 10° S 18:13:30 67° ESE 18:15:42 28° NNE
SL-19 R/B 4.0 18:09:06 10° SSE 18:14:13 59° ENE 18:19:20 10° N
Cosmos 841 Rocket 3.9 18:10:51 10° N 18:15:49 41° ENE 18:17:16 34° E
Nadezhda 4 Rocket 3.9 18:15:20 10° N 18:21:38 75° E 18:27:50 10° SSE
Resurs 1-3 3.4 18:17:41 10° SSE 18:21:55 66° ENE 18:26:12 10° N
Cosmos 1862 2.9 18:20:12 10° N 18:23:50 87° E 18:27:28 10° S
ARIANE 5 R/B 4.3 18:20:21 10° SSW 18:24:47 33° W 18:29:17 10° NNW
ATLAS 2AS CENTAUR R/B 3.7 18:19:16 10° NNW 18:24:50 26° NNE 18:25:35 25° NE
COSMOS 2406 3.3 18:21:57 10° NNW 18:27:30 51° ENE 18:29:08 39° ESE
Cosmos 1656 Rocket 3.9 18:22:19 10° S 18:27:34 47° ESE 18:28:33 42° ENE
Cosmos 468 Rocket 4.1 18:24:15 10° NNW 18:29:27 77° WSW 18:34:34 10° SSE
Okean 2 Rocket 3.0 18:30:28 10° S 18:34:51 81° W 18:37:52 20° N
Cosmos 2195 Rocket 4.4 18:29:13 10° N 18:35:31 64° E 18:41:47 10° SSE
Cosmos 1536 Rocket 3.7 18:31:35 10° NNW 18:36:00 73° W 18:40:21 10° S
MOS 1 Rocket 4.5 18:32:32 10° SSW 18:36:34 40° W 18:40:46 10° NNW
USA 215 4.1 18:31:04 10° SSE 18:37:19 48° SW 18:43:37 10° WNW
Cosmos 1190 Rocket 4.4 18:32:54 10° SSW 18:38:08 62° WNW 18:42:26 15° NNE
Cosmos 676 Rocket 3.9 18:35:42 10° SSW 18:41:00 87° ESE 18:43:16 36° NNE
Cosmos 1428 Rocket 4.4 18:34:58 10° N 18:41:18 87° E 18:47:36 10° S
Resurs 01 Rocket 4.0 18:46:22 12° N 18:46:22 12° N 18:46:39 10° N
Cosmos 489 Rocket 4.3 18:37:09 10° NNW 18:43:26 88° ENE 18:49:39 10° SSE
Cosmos 2344 4.0 18:35:44 10° NNW 18:43:34 55° NE 18:47:32 36° ESE
Meteor 2-3 Rocket 3.6 18:41:40 10° N 18:47:22 70° ENE 18:49:59 33° SSE
BlueWalker 3 3.8 18:46:55 10° SSW 18:48:23 21° SSW 18:48:23 21° SSW
ISS -1.5 18:48:16 10° WNW 18:50:07 21° NW 18:50:07 21° NW
COSMO-SKYMED 1 3.7 18:57:48 24° NNW 18:59:47 40° WNW 19:03:38 10° SW
USA 281 3.5 19:02:00 47° NE 19:02:00 47° NE 19:07:27 10° NNW
Cosmos 968 Rocket 4.5 18:57:44 10° S 19:00:38 34° S 19:00:38 34° S
Cosmos 1634 Rocket 4.0 19:02:18 10° S 19:07:37 63° SSE 19:07:37 63° SSE
DELTA 2 R/B (1) 4.4 19:04:06 10° SW 19:08:21 38° S 19:08:21 38° S
BREEZE-M DEB (TANK) 4.3 19:22:20 10° WNW 19:37:18 68° SW 19:37:20 68° SW
Cosmos 2082 Rocket 4.3 19:34:00 10° NW 19:38:24 24° WSW 19:42:47 10° SSW
Cosmos 1092 Rocket 4.4 19:32:19 10° NNW 19:38:26 58° W 19:39:48 48° SW
Cosmos 2369 Rocket 4.2 19:44:40 10° SSW 19:46:11 19° SSW 19:46:11 19° SSW
SJ 16-02 4.2 19:50:00 10° W 19:52:07 13° NW 19:52:17 13° NW
ATLAS 2AS CENTAUR R/B 4.0 20:09:47 10° NW 20:13:01 31° NW 20:13:01 31° NW
